CAPE
0 0 0 0 0 0 1 101 588 754 783 609 565 415 274 193 107 52 52 0 0 0
0 0 0 0 0 0 1 52 388 457 492 417 506 345 186 110 22 0 0 0 0 0
1 0 0 0 0 0 17 128 383 498 515 455 372 238 123 8 0 1 0 0 0 0
2 0 0 0 0 0 91 409 473 446 359 431 220 46 2 0 0 0 0 0 0 0
1 1 1 0 0 0 410 742 611 502 352 360 35 0 0 0 0 0 0 0 0 0
0 0 0 0 0 460 615 610 518 488 173 84 1 2 4 0 0 0 0 0 0 0
0 2 2 6 136 603 516 434 222 126 8 0 3 4 5 5 0 2 1 0 0 0
1 0 36 153 309 522 304 53 0 0 3 4 4 4 5 6 7 1 0 0 0 0
1 0 94 285 342 51 0 0 2 4 5 4 5 2 3 5 5 4 0 0 0 0
0 0 9 13 1 1 3 4 6 6 4 6 3 4 3 3 0 0 0 0 0 0
1 1 4 4 6 7 7 7 8 7 6 6 3 1 0 0 0 0 0 0 0 0
3 3 4 6 6 6 7 7 7 5 5 5 3 0 0 0 0 0 0 0 0 0
2 4 5 5 5 4 4 4 4 4 3 3 1 0 0 0 0 0 0 0 0 0
1 2 2 3 2 3 2 4 3 3 1 1 0 0 0 0 0 0 0 0 0 0
CIN
0 0 0 0 0 0 -287 -276 -142 -111 -109 -90 -91 -101 -107 -112 -135 -128 -133 -16 0 0
0 0 0 0 0 0 -318 -377 -177 -167 -127 -105 -88 -84 -91 -76 -153 0 0 0 0 0
0 0 0 0 0 0 -388 -206 -172 -171 -134 -105 -81 -77 -118 -82 0 -77 0 0 0 0
0 0 0 0 0 0 -100 -100 -119 -147 -136 -97 -92 -136 -29 0 0 0 0 0 0 0
0 0 0 0 0 0 -15 -44 -72 -92 -126 -69 -150 0 0 0 0 0 0 0 0 0
-1 0 0 0 0 -41 -27 -30 -51 -74 -140 -116 0 0 0 0 0 0 0 0 0 0
0 0 -101 -151 -112 -28 -61 -52 -75 -115 -130 0 0 0 0 0 0 0 0 0 0 0
0 0 -156 -104 -44 -17 -95 -189 0 0 0 0 0 0 0 0 0 0 0 0 0 0
0 -30 -146 -77 -18 -190 0 0 0 0 0 0 0 0 0 0 0 0 0 0 0 0
0 0 -143 -197 0 0 0 0 0 0 0 0 0 0 0 0 0 0 0 0 0 0
0 0 0 0 0 0 0 0 0 0 0 0 0 0 0 0 0 0 0 0 0 0
0 0 0 0 0 0 0 0 0 0 0 0 0 0 0 0 0 0 0 0 0 0
0 0 0 0 0 0 0 0 0 0 0 0 0 0 0 0 0 0 0 0 0 0
0 0 0 0 0 0 0 0 0 0 0 0 0 0 0 0 0 0 0 0 0 0
Wind_Speed
42 41 40 40 41 40 37 37 33 34 30 31 37 38 34 32 32 31 29 25 22 18
41 39 39 41 41 43 43 38 35 33 33 26 34 36 32 30 31 29 29 23 20 19
44 40 37 38 43 45 44 41 35 32 30 27 30 35 33 29 27 21 24 22 17 15
44 39 38 40 41 45 43 38 35 32 29 27 26 31 30 27 24 21 23 19 16 14
41 36 37 40 37 36 35 32 31 29 26 26 24 25 29 27 23 19 18 15 16 14
36 35 38 40 34 31 29 31 27 24 23 21 20 20 24 22 18 18 16 15 16 12
37 37 39 36 27 25 23 21 20 20 19 18 17 18 20 19 15 16 12 17 14 12
37 36 35 20 22 19 16 15 14 14 15 14 12 17 17 18 16 15 13 12 9 9
24 27 24 7 9 12 12 11 12 11 11 12 11 13 7 10 15 11 14 11 5 3
18 17 6 6 6 7 8 8 9 8 8 8 7 8 8 12 12 11 11 7 1 5
14 8 3 1 4 5 6 8 8 9 8 8 9 11 12 13 10 8 4 2 2 6
11 4 4 2 4 7 8 9 9 9 9 12 13 15 15 10 11 10 4 3 6 10
7 4 5 5 6 10 11 10 11 12 11 14 15 14 17 12 11 10 7 7 9 14
4 6 3 7 9 11 13 17 15 17 16 16 17 16 15 17 10 10 10 12 14 16
Wind_Direction
299 293 284 280 271 267 265 263 262 261 264 264 257 253 255 256 254 253 254 259 268 279
302 297 287 280 273 267 263 261 259 259 260 262 258 250 248 253 256 254 253 257 262 273
301 298 292 282 273 267 262 256 255 254 257 260 259 248 247 250 251 245 252 257 259 272
304 295 290 283 277 268 258 249 248 250 253 258 257 248 246 247 242 246 247 254 253 266
307 299 292 283 277 265 249 244 242 245 250 256 249 248 243 242 244 233 240 239 247 263
313 302 291 277 269 254 244 241 239 241 247 248 243 246 239 233 233 225 227 240 247 258
304 294 285 272 259 245 238 229 231 241 245 238 239 239 231 228 220 225 224 229 247 254
267 274 274 272 248 241 220 219 227 240 242 234 235 235 224 224 224 209 216 215 220 251
238 263 253 264 225 204 208 212 222 232 225 229 234 223 202 187 200 208 181 199 204 270
294 272 322 103 169 183 190 195 214 211 190 201 207 190 187 143 166 172 184 190 130 34
308 318 328 170 154 158 181 191 186 183 164 150 180 160 138 133 146 142 133 80 21 41
324 346 41 86 137 182 156 171 167 158 135 145 157 144 143 125 120 117 109 35 35 46
297 349 68 127 151 172 157 150 136 126 128 143 138 139 115 117 119 95 90 59 41 59
262 38 152 127 145 147 138 122 124 123 134 134 124 113 113 97 105 100 82 64 56 55